Preview of NWS' New Version of Forecast
This preview is not operational and should not be used for support decisions.

Regional Weather Roundup (RWR)

Issued by National Weather Service (NWS)

                            
000
ASUS44 KJAN 172310
RWRMS 

MISSISSIPPI HOURLY WEATHER ROUNDUP
NATIONAL WEATHER SERVICE JACKSON MS
600 PM CDT MON JUN 17 2019

NOTE: "FAIR: INDICATES FEW OR NO CLOUDS BELOW 12,000 FEET WITH NO
SIGNIFICANT WEATHER AND/OR OBSTRUCTIONS TO VISIBILITY.

MSZ001>002-007>008-010>013-018>021-025>028-034>036-180000-
NORTHWEST MISSISSIPPI
  
CITY           SKY/WX    TMP DP  RH WIND       PRES   REMARKS
BATESVILLE     FAIR      82  73  74 S8        29.93R                  
CLARKSDALE     PTSUNNY   75  73  94 S22G29    29.92R                  
CLEVELAND      LGT RAIN  71  71 100 SE3       29.91F                  
GREENWOOD      FAIR      73  69  87 E5        29.92F                  
GREENVILLE     FAIR      74  72  93 E8        29.89F                  
OLIVE BRANCH   PTSUNNY   81  73  78 S6        29.91S                  
OXFORD         RAIN      73  68  83 SE12G39   29.98R VSB 1/4          
TUNICA           N/A     84  64  51 SW7       29.91S                  
WINONA         LGT RAIN  70  70 100 CALM      29.95F                  
$$

MSZ003>006-009-014>017-022>024-029>033-037>039-180000-
NORTHEAST MISSISSIPPI
  
CITY           SKY/WX    TMP DP  RH WIND       PRES   REMARKS
ABERDEEN       RAIN      75  75 100 SW29G40   29.99R                  
COLUMBUS AFB   NOT AVBL                                               
CORINTH        LGT RAIN  73  70  88 CALM      29.96R                  
GOLDN TRIANGLE LGT RAIN  72  70  93 NW6       29.97F                  
STARKVILLE     CLOUDY    70  70 100 CALM      29.99F                  
TUPELO         TSTM      75  70  84 SW7       29.98R                  
$$

MSZ040-058-180000-
CENTRAL MISSISSIPPI
  
CITY           SKY/WX    TMP DP  RH WIND       PRES   REMARKS
JACKSON INTL   NOT AVBL                                               
JACKSON HAWKNS FAIR      76  72  87 E8        29.94F                  
MADISON        FAIR      72  72 100 CALM      29.93F                  
MERIDIAN KEY   LGT RAIN  77  72  84 N8        29.96R                  
MERIDIAN NAS   CLOUDY    77  68  73 NW17G29   29.96R THUNDER          
RAYMOND        FAIR      77  75  94 SE8       29.93S                  
VICKSBURG VKS  CLEAR     81  75  83 SE8       29.90F                  
$$

MSZ059>079-180000-
SOUTH MISSISSIPPI
  
CITY           SKY/WX    TMP DP  RH WIND       PRES   REMARKS
BROOKHAVEN     FAIR      81  73  78 E6        29.95R                  
HATTIESBURG    FAIR      85  70  60 SW7       29.94S                  
LAUREL         CLEAR     80  71  74 W6        29.95R                  
MCCOMB         LGT RAIN  80  73  79 SE7       29.93R                  
NATCHEZ        FAIR      83  72  69 S5        29.90F                  
PINE BELT      FAIR      81  72  74 CALM      29.95S                  
$$

MSZ080>082-180000-
COASTAL MISSISSIPPI
  
CITY           SKY/WX    TMP DP  RH WIND       PRES   REMARKS
BAY ST LOUIS   TSTM      73  72  94 NE13      29.95S                  
BILOXI         PTSUNNY   79  75  89 SE3G20    29.93S                  
PASCAGOULA     FAIR      86  74  67 S7        29.94R HX  94           
GULFPORT       FAIR      84  74  71 S6        29.92S HX  91           
$$

LAZ007>009-015>016-023>026-180000-
NORTHEAST LOUISIANA
  
CITY           SKY/WX    TMP DP  RH WIND       PRES   REMARKS
BASTROP        FAIR      76  75  98 CALM      29.88F                  
TALLULAH/VBURG FAIR      78  72  81 SE8       29.91S                  
VIDALIA        FAIR      83  72  69 SE8       29.87F                  
$$